User: anonymous   Login
Location: Songkhla
(7.2000°N, 100.6000°E)
Time: 13:08:19
(UTC+07:00)
Language:

XW-2D - Orbit

View from above orbital plane
View from above orbital plane
View from above satellite
View from above satellite

Ground track
Ground track

The orbit data is extracted from the following two-line orbital elements,

1 40907U 15049J   21209.84876454  .00001421  00000-0  74791-4 0  9999
2 40907  97.4846 211.4935 0015138  45.1449  73.9475 15.17170492323875
Epoch (UTC): 28 July 2021 20:22:13
Eccentricity: 0.0015138
inclination: 97.4846°
perigee height: 504 km
apogee height: 525 km
right ascension of ascending node: 211.4935°
argument of perigee: 45.1449°
revolutions per day: 15.17170492
mean anomaly at epoch: 73.9475°
orbit number at epoch: 32387

The dashed part of the orbit path shows where the satellite is in the earth's shadow,  

DLR